| time (UTC) | temp C | wind direction | speed KPH | gust KPH | rain 1hr cm | rain 24hr cm | rain mn cm | humidity % | barometer mb |
| 20260509124555 | 12 | 183 | 3.2 | 12.9 | 0.00 | 0.00 | 0.00 | 66 | 997.6 |
| 20260509123055 | 12 | 214 | 3.2 | 14.5 | 0.00 | 0.00 | 0.00 | 65 | 997.6 |
| 20260509121550 | 11 | 208 | 3.2 | 8.0 | 0.00 | 0.00 | 0.00 | 67 | 997.6 |
| 20260509120052 | 10 | 212 | 3.2 | 6.4 | 0.00 | 0.00 | 0.00 | 69 | 997.6 |
| 20260509114542 | 9 | 179 | 0.0 | 4.8 | 0.00 | 0.00 | 0.00 | 70 | 997.8 |
| 20260509113039 | 8 | 179 | 0.0 | 6.4 | 0.00 | 0.00 | 0.00 | 71 | 997.7 |
| 20260509111537 | 8 | 185 | 1.6 | 4.8 | 0.00 | 0.00 | 0.00 | 72 | 997.6 |
| 20260509110036 | 7 | 186 | 0.0 | 4.8 | 0.00 | 0.00 | 0.00 | 71 | 997.8 |
| 20260509104539 | 7 | 186 | 0.0 | 3.2 | 0.00 | 0.00 | 0.00 | 71 | 998.1 |
| 20260509103033 | 7 | 186 | 0.0 | 3.2 | 0.00 | 0.00 | 0.00 | 70 | 998.2 |
| 20260509101537 | 7 | 186 | 0.0 | 1.6 | 0.00 | 0.00 | 0.00 | 67 | 998.3 |
| 20260509100028 | 7 | 186 | 0.0 | 1.6 | 0.00 | 0.00 | 0.00 | 65 | 998.8 |
| 20260509094525 | 7 | 187 | 0.0 | 1.6 | 0.00 | 0.00 | 0.00 | 66 | 999.0 |
| 20260509093035 | 7 | 184 | 1.6 | 4.8 | 0.00 | 0.00 | 0.00 | 67 | 999.4 |
| 20260509091523 | 6 | 233 | 0.0 | 3.2 | 0.00 | 0.00 | 0.00 | 70 | 999.4 |
| 20260509090021 | 6 | 237 | 0.0 | 3.2 | 0.00 | 0.00 | 0.00 | 73 | 999.6 |
| 20260509084527 | 6 | 236 | 0.0 | 3.2 | 0.00 | 0.00 | 0.00 | 74 | 999.6 |
| 20260509083021 | 7 | 236 | 0.0 | 3.2 | 0.00 | 0.00 | 0.00 | 74 | 999.8 |
| 20260509081522 | 7 | 238 | 0.0 | 1.6 | 0.00 | 0.00 | 0.00 | 70 | 1000.0 |
| 20260509080027 | 7 | 238 | 0.0 | 1.6 | 0.00 | 0.00 | 0.00 | 70 | 1000.0 |
| 20260509074511 | 7 | 237 | 0.0 | 1.6 | 0.00 | 0.00 | 0.00 | 69 | 1000.3 |
| 20260509073009 | 7 | 238 | 0.0 | 3.2 | 0.00 | 0.00 | 0.00 | 69 | 1000.6 |
| 20260509071506 | 7 | 238 | 0.0 | 3.2 | 0.00 | 0.00 | 0.00 | 68 | 1000.9 |
| 20260509070004 | 7 | 238 | 0.0 | 3.2 | 0.00 | 0.00 | 0.00 | 70 | 1001.2 |
| 20260509064504 | 7 | 238 | 0.0 | 3.2 | 0.00 | 0.00 | 0.00 | 70 | 1001.4 |
| 20260509063100 | 7 | 238 | 0.0 | 3.2 | 0.00 | 0.00 | 0.00 | 71 | 1001.6 |
| 20260509061558 | 7 | 237 | 0.0 | 3.2 | 0.00 | 0.00 | 0.00 | 74 | 1002.0 |
| 20260509060056 | 7 | 238 | 0.0 | 1.6 | 0.00 | 0.00 | 0.00 | 74 | 1002.2 |
| 20260509054554 | 7 | 238 | 0.0 | 3.2 | 0.00 | 0.00 | 0.00 | 74 | 1002.6 |
| 20260509053049 | 7 | 239 | 0.0 | 3.2 | 0.00 | 0.00 | 0.00 | 73 | 1002.8 |
| 20260509051552 | 7 | 239 | 0.0 | 3.2 | 0.00 | 0.00 | 0.00 | 73 | 1003.1 |
| 20260509050047 | 7 | 239 | 0.0 | 3.2 | 0.00 | 0.00 | 0.00 | 72 | 1003.2 |
| 20260509044541 | 8 | 239 | 0.0 | 4.8 | 0.00 | 0.00 | 0.00 | 72 | 1003.4 |
| 20260509043038 | 8 | 238 | 0.0 | 1.6 | 0.00 | 0.00 | 0.00 | 69 | 1003.6 |
| 20260509041537 | 8 | 238 | 0.0 | 3.2 | 0.00 | 0.00 | 0.00 | 67 | 1003.9 |
| 20260509040035 | 8 | 239 | 0.0 | 1.6 | 0.00 | 0.00 | 0.00 | 68 | 1004.1 |
| 20260509034531 | 8 | 238 | 0.0 | 3.2 | 0.00 | 0.00 | 0.00 | 66 | 1004.4 |
| 20260509033030 | 8 | 238 | 0.0 | 4.8 | 0.00 | 0.00 | 0.00 | 65 | 1004.4 |
| 20260509031532 | 8 | 237 | 0.0 | 3.2 | 0.00 | 0.00 | 0.00 | 70 | 1004.5 |
| 20260509030028 | 8 | 238 | 0.0 | 1.6 | 0.00 | 0.00 | 0.00 | 68 | 1004.5 |
| 20260509024527 | 8 | 237 | 0.0 | 1.6 | 0.00 | 0.00 | 0.00 | 66 | 1004.6 |
| 20260509023026 | 9 | 238 | 0.0 | 3.2 | 0.00 | 0.00 | 0.00 | 64 | 1004.8 |
| 20260509021526 | 9 | 241 | 0.0 | 1.6 | 0.00 | 0.00 | 0.00 | 63 | 1004.9 |
| 20260509020032 | 9 | 241 | 0.0 | 1.6 | 0.00 | 0.00 | 0.00 | 62 | 1005.0 |
| 20260509014537 | 10 | 241 | 0.0 | 1.6 | 0.00 | 0.00 | 0.00 | 61 | 1004.9 |
| 20260509013024 | 10 | 241 | 0.0 | 1.6 | 0.00 | 0.00 | 0.00 | 57 | 1004.8 |
| 20260509011524 | 10 | 241 | 0.0 | 0.0 | 0.00 | 0.00 | 0.00 | 49 | 1004.8 |
| 20260509010023 | 11 | 241 | 0.0 | 0.0 | 0.00 | 0.00 | 0.00 | 48 | 1004.8 |
| 20260509004524 | 11 | 241 | 0.0 | 3.2 | 0.00 | 0.00 | 0.00 | 46 | 1004.8 |
| 20260509003029 | 12 | 249 | 1.6 | 3.2 | 0.00 | 0.00 | 0.00 | 44 | 1004.9 |
| 20260509001519 | 12 | 283 | 0.0 | 3.2 | 0.00 | 0.00 | 0.00 | 43 | 1005.0 |
| 20260509000019 | 12 | 283 | 0.0 | 6.4 | 0.00 | 0.00 | 0.00 | 40 | 1005.1 |
| 20260508234517 | 13 | 277 | 0.0 | 4.8 | 0.00 | 0.00 | 0.00 | 39 | 1005.2 |
| 20260508233016 | 13 | 291 | 3.2 | 8.0 | 0.00 | 0.00 | 0.00 | 40 | 1005.4 |
| 20260508231515 | 13 | 289 | 4.8 | 11.3 | 0.00 | 0.00 | 0.00 | 37 | 1005.5 |
| 20260508230015 | 13 | 233 | 3.2 | 11.3 | 0.00 | 0.00 | 0.00 | 36 | 1005.4 |
| 20260508224513 | 13 | 296 | 1.6 | 6.4 | 0.00 | 0.00 | 0.00 | 36 | 1005.5 |
| 20260508223021 | 13 | 233 | 0.0 | 6.4 | 0.00 | 0.00 | 0.00 | 37 | 1005.6 |
| 20260508221510 | 12 | 237 | 3.2 | 11.3 | 0.00 | 0.00 | 0.00 | 38 | 1005.8 |
| 20260508220008 | 12 | 288 | 4.8 | 12.9 | 0.00 | 0.00 | 0.00 | 40 | 1006.0 |
| 20260508214507 | 12 | 220 | 1.6 | 9.7 | 0.00 | 0.00 | 0.00 | 41 | 1006.2 |
| 20260508213007 | 13 | 192 | 3.2 | 12.9 | 0.00 | 0.00 | 0.00 | 41 | 1006.2 |
| 20260508211511 | 13 | 311 | 6.4 | 12.9 | 0.00 | 0.00 | 0.00 | 41 | 1006.2 |
| 20260508210005 | 14 | 223 | 3.2 | 14.5 | 0.00 | 0.00 | 0.00 | 41 | 1006.3 |
| 20260508204506 | 13 | 300 | 4.8 | 16.1 | 0.00 | 0.00 | 0.00 | 44 | 1006.6 |
| 20260508203002 | 13 | 241 | 4.8 | 16.1 | 0.00 | 0.00 | 0.00 | 46 | 1006.7 |
| 20260508201601 | 12 | 209 | 3.2 | 17.7 | 0.00 | 0.00 | 0.00 | 45 | 1006.8 |
| 20260508200110 | 12 | 273 | 4.8 | 22.5 | 0.00 | 0.00 | 0.00 | 45 | 1007.0 |
| 20260508194603 | 13 | 307 | 8.0 | 16.1 | 0.00 | 0.00 | 0.00 | 44 | 1007.3 |
| 20260508193104 | 13 | 208 | 4.8 | 22.5 | 0.00 | 0.00 | 0.00 | 44 | 1007.5 |
| 20260508191555 | 13 | 189 | 3.2 | 9.7 | 0.00 | 0.00 | 0.00 | 48 | 1007.6 |
| 20260508190052 | 12 | 304 | 4.8 | 19.3 | 0.00 | 0.00 | 0.00 | 46 | 1007.6 |
| 20260508184551 | 12 | 347 | 4.8 | 17.7 | 0.00 | 0.00 | 0.00 | 47 | 1007.6 |
| 20260508183049 | 12 | 168 | 4.8 | 16.1 | 0.00 | 0.00 | 0.00 | 46 | 1007.7 |
| 20260508181545 | 12 | 229 | 6.4 | 17.7 | 0.00 | 0.00 | 0.00 | 49 | 1007.9 |
| 20260508180044 | 11 | 300 | 4.8 | 16.1 | 0.00 | 0.00 | 0.00 | 51 | 1007.9 |
| 20260508174550 | 12 | 179 | 9.7 | 16.1 | 0.00 | 0.00 | 0.00 | 48 | 1008.1 |
| 20260508173039 | 12 | 313 | 6.4 | 16.1 | 0.00 | 0.00 | 0.00 | 52 | 1008.2 |
| 20260508171539 | 12 | 202 | 3.2 | 14.5 | 0.00 | 0.00 | 0.00 | 49 | 1008.4 |
| 20260508170040 | 11 | 274 | 6.4 | 12.9 | 0.00 | 0.00 | 0.00 | 49 | 1008.5 |
| 20260508164539 | 11 | 266 | 8.0 | 14.5 | 0.00 | 0.00 | 0.00 | 52 | 1008.7 |
| 20260508163033 | 12 | 237 | 6.4 | 16.1 | 0.00 | 0.00 | 0.00 | 51 | 1008.9 |
| 20260508161534 | 10 | 209 | 8.0 | 16.1 | 0.00 | 0.00 | 0.00 | 54 | 1008.9 |
| 20260508160027 | 10 | 177 | 3.2 | 11.3 | 0.00 | 0.00 | 0.00 | 58 | 1009.0 |
| 20260508154536 | 9 | 223 | 3.2 | 16.1 | 0.00 | 0.00 | 0.00 | 59 | 1009.2 |
| 20260508153024 | 9 | 241 | 4.8 | 14.5 | 0.00 | 0.00 | 0.00 | 60 | 1009.4 |
| 20260508151530 | 9 | 187 | 6.4 | 14.5 | 0.00 | 0.00 | 0.00 | 58 | 1009.4 |
| 20260508150026 | 9 | 271 | 3.2 | 16.1 | 0.00 | 0.00 | 0.00 | 59 | 1009.4 |
| 20260508144521 | 10 | 347 | 6.4 | 14.5 | 0.00 | 0.00 | 0.00 | 60 | 1009.5 |
| 20260508143017 | 9 | 259 | 4.8 | 11.3 | 0.00 | 0.00 | 0.00 | 63 | 1009.5 |
| 20260508141518 | 8 | 197 | 1.6 | 12.9 | 0.00 | 0.00 | 0.00 | 65 | 1009.6 |
| 20260508140019 | 7 | 209 | 6.4 | 12.9 | 0.00 | 0.00 | 0.00 | 66 | 1009.7 |
| 20260508134508 | 7 | 173 | 3.2 | 9.7 | 0.00 | 0.00 | 0.00 | 68 | 1009.6 |
| 20260508133002 | 6 | 218 | 1.6 | 12.9 | 0.00 | 0.00 | 0.00 | 70 | 1009.7 |
| 20260508131600 | 6 | 295 | 1.6 | 8.0 | 0.00 | 0.00 | 0.00 | 72 | 1009.9 |
| 20260508130106 | 6 | 167 | 4.8 | 17.7 | 0.00 | 0.00 | 0.00 | 70 | 1009.8 |